Salt Lake City, UT

8:31 AM MST on November 23, 2017 (GMT -0700)
Salt Lake City International

Weather History for KSLC - February, 2012

Change the Weather History Date:

Thursday, February 2, 2012

  Actual Average Record
Temperature  
Mean Temperature 36 °F 31 °F  
Max Temperature 43 °F 39 °F 58 °F (1995)
Min Temperature 29 °F 22 °F -4 °F (1949)
Degree Days  
Heating Degree Days 29 34  
Month to date heating degree days 57 68  
Since 1 July heating degree days 3243 3462  
Cooling Degree Days 0 0  
Month to date cooling degree days 0 0  
Year to date cooling degree days 0 0  
Moisture  
Dew Point 29 °F    
Average Humidity 73    
Maximum Humidity 89    
Minimum Humidity 57    
Precipitation  
Precipitation 0.06 in 0.04 in 0.89 in (1936)
Month to date precipitation 0.06 0.08  
Year to date precipitation 1.85 1.33  
Snow  
Snow 0.00 in 0.40 in 5.00 in (1936)
Month to date snowfall 0.0 0.8  
Since 1 July snowfall 12.5 35.5  
Snow Depth 0.00 in    
Sea Level Pressure  
Sea Level Pressure 30.11 in    
Wind  
Wind Speed 10 mph (NW)    
Max Wind Speed 21 mph    
Max Gust Speed 24 mph    
Visibility 8 miles    
Events Snow    
T = Trace of Precipitation, MM = Missing Value Source: NWS Daily Summary

Daily Weather History Graph

Daily Weather History Graph

Search for Another Location

Airport or City:

Trip Planner

Search our weather history database for the weather conditions in past years. The results will help you decide how hot, cold, wet, or windy it might be!

Date:

Astronomy

Feb. 02, 2012 Rise Set
Actual Time 7:37 AM MST 5:46 PM MST
Civil Twilight 7:08 AM MST 6:15 PM MST
Nautical Twilight 6:35 AM MST 6:47 PM MST
Astronomical Twilight 6:03 AM MST 7:20 PM MST
Moon 12:59 PM MST (2/2) 3:23 AM MST (2/2)
Length of Visible Light 11h 06m
Length of Day
10h 08m
Waxing Gibbous, 74% of the Moon is Illuminated
Feb 2
Waxing Gibbous
Feb 7
Full
Feb 14
Last Quarter
Feb 21
New
Feb 29
First Quarter

Hourly Weather History & Observations

Time (MST) Temp. Windchill Dew Point Humidity Pressure Visibility Wind Dir Wind Speed Gust Speed Precip Events Conditions
12:53 AM 33.1 °F 27.7 °F 30.0 °F 89% 30.10 in 10.0 mi NW 5.8 mph - N/A   Overcast
1:53 AM 34.0 °F 28.0 °F 30.0 °F 85% 30.09 in 10.0 mi NW 6.9 mph - N/A   Overcast
2:53 AM 33.1 °F 26.9 °F 30.9 °F 92% 30.09 in 10.0 mi NNW 6.9 mph - 0.00 in Snow Light Snow
3:30 AM 33.8 °F 27.0 °F 30.2 °F 87% 30.08 in 6.0 mi NNW 8.1 mph - 0.00 in   Overcast
3:37 AM 33.8 °F 27.0 °F 30.2 °F 87% 30.09 in 6.0 mi NW 8.1 mph - 0.00 in   Overcast
3:44 AM 33.8 °F 28.6 °F 30.2 °F 87% 30.09 in 0.8 mi WNW 5.8 mph - 0.00 in   Overcast
3:53 AM 33.1 °F 26.9 °F 30.9 °F 92% 30.10 in 0.8 mi WNW 6.9 mph - 0.00 in Snow Light Snow
4:10 AM 33.8 °F 25.8 °F 30.2 °F 87% 30.09 in 1.5 mi NW 10.4 mph - 0.01 in Snow Light Snow
4:53 AM 33.1 °F 28.7 °F 30.9 °F 92% 30.09 in 2.0 mi NW 4.6 mph - 0.06 in Snow Light Snow
5:07 AM 33.8 °F 25.8 °F 30.2 °F 87% 30.08 in 4.0 mi NW 10.4 mph - 0.00 in   Overcast
5:39 AM 33.8 °F 28.6 °F 30.2 °F 87% 30.08 in 4.0 mi NW 5.8 mph - 0.00 in   Overcast
5:53 AM 33.1 °F 27.7 °F 30.9 °F 92% 30.07 in 10.0 mi NW 5.8 mph - 0.00 in   Overcast
6:53 AM 33.1 °F 25.5 °F 30.0 °F 89% 30.08 in 10.0 mi WNW 9.2 mph - N/A   Overcast
7:53 AM 33.1 °F 24.9 °F 28.9 °F 85% 30.12 in 10.0 mi WNW 10.4 mph - 0.00 in Snow Light Snow
8:53 AM 30.9 °F 23.5 °F 27.0 °F 85% 30.14 in 10.0 mi WNW 8.1 mph - 0.00 in   Mostly Cloudy
9:06 AM 32.0 °F 24.2 °F 26.6 °F 80% 30.12 in 10.0 mi NW 9.2 mph - N/A   Mostly Cloudy
9:25 AM 32.0 °F 24.2 °F 26.6 °F 80% 30.12 in 10.0 mi NW 9.2 mph - N/A   Mostly Cloudy
9:53 AM 34.0 °F 27.2 °F 28.0 °F 79% 30.14 in 10.0 mi NNW 8.1 mph - N/A   Mostly Cloudy
10:36 AM 35.6 °F 28.0 °F 26.6 °F 70% 30.13 in 10.0 mi NNW 10.4 mph - N/A   Mostly Cloudy
10:53 AM 36.0 °F 28.5 °F 27.0 °F 70% 30.12 in 10.0 mi NNW 10.4 mph - N/A   Scattered Clouds
11:53 AM 37.0 °F 29.8 °F 28.0 °F 70% 30.15 in 10.0 mi NW 10.4 mph - N/A   Mostly Cloudy
12:53 PM 39.0 °F 30.6 °F 28.9 °F 67% 30.10 in 10.0 mi West 15.0 mph - N/A   Mostly Cloudy
1:23 PM 39.2 °F 29.8 °F 28.4 °F 65% 30.10 in 10.0 mi West 18.4 mph - N/A   Mostly Cloudy
1:34 PM 39.2 °F 30.2 °F 30.2 °F 70% 30.10 in 10.0 mi WNW 17.3 mph - N/A   Mostly Cloudy
1:53 PM 42.1 °F 33.9 °F 30.0 °F 62% 30.10 in 10.0 mi WNW 17.3 mph 23.0 mph N/A   Mostly Cloudy
2:53 PM 42.1 °F 34.9 °F 28.0 °F 58% 30.09 in 10.0 mi NW 13.8 mph - N/A   Mostly Cloudy
3:53 PM 39.9 °F 31.8 °F 28.0 °F 63% 30.09 in 10.0 mi NW 15.0 mph - N/A   Mostly Cloudy
4:53 PM 39.0 °F 29.9 °F 28.0 °F 65% 30.08 in 10.0 mi NNW 17.3 mph - N/A   Mostly Cloudy
5:53 PM 37.0 °F 29.8 °F 28.0 °F 70% 30.13 in 10.0 mi NW 10.4 mph - N/A   Mostly Cloudy
6:53 PM 34.0 °F 28.0 °F 28.0 °F 79% 30.14 in 10.0 mi NW 6.9 mph - N/A   Mostly Cloudy
7:53 PM 34.0 °F 26.0 °F 28.0 °F 79% 30.15 in 10.0 mi NW 10.4 mph - N/A   Mostly Cloudy
8:53 PM 34.0 °F 26.6 °F 27.0 °F 75% 30.16 in 10.0 mi NW 9.2 mph - N/A   Mostly Cloudy
9:53 PM 33.1 °F 26.1 °F 27.0 °F 78% 30.15 in 10.0 mi NW 8.1 mph - N/A   Mostly Cloudy
10:53 PM 33.1 °F 26.1 °F 27.0 °F 78% 30.14 in 10.0 mi NW 8.1 mph - N/A   Scattered Clouds
11:53 PM 30.0 °F 23.2 °F 25.0 °F 82% 30.14 in 10.0 mi West 6.9 mph - N/A   Mostly Cloudy